EW7518 Weather Reports


time (UTC)temp
C
wind
direction
speed
KPH
gust
KPH
rain 1hr
cm
rain 24hr
cm
rain mn
cm
humidity
%
barometer
mb
20180218181708 12 238 0.0 6.4 0.00 0.00 0.00 79 1016.4
20180218181209 12 238 1.6 6.4 0.00 0.00 0.00 79 1016.1
20180218180707 13 238 4.8 8.0 0.00 0.00 0.00 78 1016.1
20180218180210 13 238 4.8 9.7 0.00 0.00 0.00 78 1016.1
20180218175707 13 246 6.4 9.7 0.00 0.00 0.00 78 1016.0
20180218175209 13 229 6.4 11.3 0.00 0.00 0.00 77 1016.0
20180218174708 13 252 4.8 11.3 0.00 0.00 0.00 77 1016.0
20180218174210 13 257 6.4 11.3 0.00 0.00 0.00 76 1016.0
20180218173708 14 235 6.4 11.3 0.00 0.00 0.00 76 1016.0
20180218173213 14 247 6.4 11.3 0.00 0.00 0.00 76 1016.0
20180218172707 15 238 6.4 8.0 0.00 0.00 0.00 75 1016.0
20180218172210 15 223 4.8 9.7 0.00 0.00 0.00 73 1016.0
20180218171732 15 201 4.8 11.3 0.00 0.00 0.00 72 1016.0
20180218171210 16 236 4.8 11.3 0.00 0.00 0.00 71 1016.0
20180218170708 16 232 4.8 11.3 0.00 0.00 0.00 70 1016.0
20180218170210 16 237 6.4 11.3 0.00 0.00 0.00 69 1016.0
20180218165707 17 224 6.4 11.3 0.00 0.00 0.00 68 1016.0
20180218165208 17 186 4.8 9.7 0.00 0.00 0.00 68 1016.0
20180218164707 17 205 4.8 9.7 0.00 0.00 0.00 68 1016.0
20180218164210 17 139 6.4 11.3 0.00 0.00 0.00 68 1015.9
20180218163727 17 188 6.4 11.3 0.00 0.00 0.00 67 1015.9
20180218163209 17 194 6.4 12.9 0.00 0.00 0.00 67 1015.9
20180218162712 17 214 6.4 12.9 0.00 0.00 0.00 66 1016.0
20180218162210 17 182 6.4 14.5 0.00 0.00 0.00 65 1016.0
20180218161707 17 150 8.0 14.5 0.00 0.00 0.00 63 1016.0
20180218161209 18 177 6.4 14.5 0.00 0.00 0.00 63 1016.0
20180218160711 17 140 6.4 12.9 0.00 0.00 0.00 64 1016.0
20180218160209 17 145 8.0 12.9 0.00 0.00 0.00 64 1016.0
20180218155707 17 137 8.0 12.9 0.00 0.00 0.00 66 1016.0
20180218155208 16 133 6.4 11.3 0.00 0.00 0.00 68 1016.0
20180218154731 16 161 6.4 11.3 0.00 0.00 0.00 69 1016.0
20180218154210 16 164 6.4 11.3 0.00 0.00 0.00 71 1016.0
20180218153708 15 190 6.4 11.3 0.00 0.00 0.00 70 1016.0
20180218153209 16 190 6.4 12.9 0.00 0.00 0.00 70 1016.0
20180218152708 16 175 6.4 12.9 0.00 0.00 0.00 70 1016.1
20180218152209 16 144 6.4 12.9 0.00 0.00 0.00 69 1016.1
20180218151708 16 187 6.4 12.9 0.00 0.00 0.00 70 1016.1
20180218151208 16 140 6.4 11.3 0.00 0.00 0.00 70 1016.3
20180218150707 16 135 6.4 12.9 0.00 0.00 0.00 70 1016.3
20180218150208 16 175 6.4 12.9 0.00 0.00 0.00 70 1016.3
20180218145708 16 159 6.4 12.9 0.00 0.00 0.00 69 1016.4
20180218145208 16 144 6.4 12.9 0.00 0.00 0.00 70 1016.4
20180218144709 16 156 6.4 12.9 0.00 0.00 0.00 70 1016.4
20180218144211 16 172 6.4 12.9 0.00 0.00 0.00 70 1016.5
20180218143707 16 165 8.0 12.9 0.00 0.00 0.00 69 1016.5
20180218143209 16 213 6.4 12.9 0.00 0.00 0.00 69 1016.5
20180218142707 16 157 6.4 12.9 0.00 0.00 0.00 68 1016.5
20180218142210 16 152 6.4 16.1 0.00 0.00 0.00 65 1016.5
20180218141708 16 204 6.4 16.1 0.00 0.00 0.00 64 1016.5
20180218141209 17 198 6.4 16.1 0.00 0.00 0.00 64 1016.5
20180218140707 17 165 6.4 16.1 0.00 0.03 0.00 63 1016.5
20180218140209 17 197 4.8 12.9 0.00 0.03 0.00 60 1016.5
20180218135707 17 258 3.2 8.0 0.00 0.03 0.00 57 1016.5
20180218135208 18 269 3.2 8.0 0.00 0.03 0.00 55 1016.5
20180218134707 18 343 3.2 11.3 0.00 0.03 0.00 55 1016.5
20180218134211 18 346 3.2 11.3 0.00 0.03 0.00 55 1016.6
20180218133707 18 92 3.2 12.9 0.00 0.03 0.00 55 1016.6
20180218133210 18 97 4.8 12.9 0.00 0.03 0.00 57 1016.6
20180218132707 18 50 6.4 14.5 0.00 0.03 0.00 55 1016.7
20180218132209 18 163 6.4 14.5 0.00 0.03 0.00 58 1016.7
20180218131711 18 166 6.4 16.1 0.00 0.03 0.00 57 1016.7
20180218131208 18 123 8.0 16.1 0.00 0.03 0.00 60 1017.0
20180218130731 17 217 9.7 16.1 0.00 0.03 0.00 62 1017.0
20180218130208 17 143 8.0 14.5 0.00 0.03 0.00 64 1017.0
20180218125707 16 152 6.4 14.5 0.00 0.03 0.00 65 1017.1
20180218125210 16 152 6.4 12.9 0.00 0.03 0.00 63 1017.1
20180218124707 16 121 6.4 11.3 0.00 0.03 0.00 63 1017.1
20180218124209 16 121 4.8 11.3 0.00 0.03 0.00 63 1017.3
20180218123708 16 153 3.2 8.0 0.00 0.03 0.00 60 1017.3
20180218123209 16 229 3.2 6.4 0.00 0.03 0.00 57 1017.3
20180218122708 16 93 1.6 4.8 0.00 0.03 0.00 55 1017.6
20180218122228 16 93 1.6 4.8 0.00 0.03 0.00 56 1017.6
20180218121707 16 38 1.6 6.4 0.00 0.03 0.00 55 1017.6
20180218121209 16 37 3.2 6.4 0.00 0.03 0.00 58 1017.6
20180218120708 16 37 3.2 8.0 0.00 0.03 0.00 56 1017.6
20180218120209 16 23 3.2 8.0 0.00 0.03 0.00 55 1017.6
20180218115711 17 55 3.2 8.0 0.00 0.03 0.00 56 1017.7
20180218115208 17 113 3.2 6.4 0.00 0.03 0.00 55 1017.7
20180218114708 16 113 3.2 6.4 0.00 0.03 0.00 56 1017.7
20180218114209 16 30 3.2 6.4 0.00 0.03 0.00 56 1017.9
20180218113707 16 36 3.2 8.0 0.00 0.03 0.00 56 1017.9
20180218113210 16 45 3.2 8.0 0.00 0.03 0.00 55 1017.9
20180218112708 16 45 4.8 8.0 0.00 0.03 0.00 57 1018.0
20180218112208 16 65 4.8 12.9 0.00 0.03 0.00 57 1018.0
20180218111709 17 37 4.8 12.9 0.00 0.03 0.00 54 1018.0
20180218111209 17 5 6.4 12.9 0.00 0.03 0.00 51 1018.0
20180218110707 17 28 6.4 12.9 0.00 0.03 0.00 52 1018.0
20180218110209 17 42 4.8 12.9 0.00 0.03 0.00 53 1018.0
20180218105707 17 61 3.2 12.9 0.00 0.03 0.00 52 1018.1
20180218105208 17 16 6.4 12.9 0.00 0.03 0.00 53 1018.1
20180218104708 16 17 6.4 11.3 0.00 0.03 0.00 53 1018.1
20180218104209 16 11 6.4 11.3 0.00 0.03 0.00 52 1018.1
20180218103707 16 92 6.4 11.3 0.00 0.03 0.00 54 1018.1
20180218103208 16 9 6.4 11.3 0.00 0.03 0.00 54 1018.1
20180218102708 16 351 4.8 9.7 0.00 0.03 0.00 58 1018.3
20180218102209 16 5 4.8 11.3 0.00 0.03 0.00 58 1018.3
20180218101708 16 13 4.8 11.3 0.00 0.03 0.00 59 1018.3
20180218101209 16 55 6.4 11.3 0.00 0.03 0.00 58 1018.4
20180218100707 15 22 6.4 12.9 0.00 0.03 0.00 60 1018.4
20180218100209 15 34 8.0 12.9 0.00 0.03 0.00 61 1018.4
20180218095708 15 17 6.4 11.3 0.00 0.03 0.00 62 1018.4
20180218095209 15 15 6.4 11.3 0.00 0.03 0.00 64 1018.4
20180218094716 14 37 4.8 11.3 0.00 0.03 0.00 64 1018.4
20180218094211 14 351 3.2 8.0 0.00 0.03 0.00 67 1018.3
20180218093708 13 37 4.8 11.3 0.00 0.03 0.00 69 1018.3
20180218093209 13 26 4.8 11.3 0.00 0.03 0.00 70 1018.3
20180218092707 13 15 4.8 11.3 0.00 0.03 0.00 71 1018.3
20180218092209 13 29 4.8 9.7 0.00 0.03 0.00 71 1018.3
20180218091712 12 34 4.8 9.7 0.00 0.03 0.00 72 1018.3
20180218091218 12 32 3.2 9.7 0.00 0.03 0.00 71 1018.5
20180218090713 12 17 1.6 4.8 0.00 0.03 0.00 74 1018.5
20180218090213 12 28 1.6 8.0 0.00 0.03 0.00 75 1018.5
20180218085707 12 27 1.6 8.0 0.00 0.03 0.00 76 1018.6
20180218085208 12 27 3.2 11.3 0.00 0.03 0.00 75 1018.6
20180218084708 12 5 3.2 11.3 0.00 0.03 0.00 75 1018.6
20180218084210 11 30 4.8 11.3 0.00 0.03 0.00 77 1018.5
20180218083717 11 34 6.4 9.7 0.00 0.03 0.00 77 1018.5
20180218083212 11 16 4.8 8.0 0.00 0.03 0.00 78 1018.5
20180218082707 11 17 3.2 11.3 0.00 0.03 0.00 78 1018.2
20180218082209 11 31 4.8 14.5 0.00 0.03 0.00 79 1018.2
20180218081707 11 5 6.4 14.5 0.00 0.03 0.00 79 1018.2
20180218081209 11 15 8.0 14.5 0.00 0.03 0.00 79 1018.2
20180218080724 10 18 8.0 12.9 0.00 0.03 0.00 80 1018.2
20180218080209 10 22 6.4 12.9 0.00 0.03 0.00 81 1018.2
20180218075711 10 15 6.4 9.7 0.00 0.03 0.00 82 1018.2
20180218075207 10 9 4.8 9.7 0.00 0.03 0.00 83 1018.2
20180218074707 10 25 6.4 9.7 0.00 0.03 0.00 83 1018.2
20180218074210 10 40 6.4 12.9 0.00 0.03 0.00 83 1018.1
20180218073707 10 36 4.8 12.9 0.00 0.03 0.00 84 1018.1
20180218073208 10 30 6.4 12.9 0.00 0.03 0.00 83 1018.1
20180218072708 10 38 6.4 14.5 0.00 0.03 0.00 84 1018.0
20180218072210 10 21 6.4 14.5 0.00 0.03 0.00 84 1018.0
20180218071707 10 43 6.4 14.5 0.00 0.03 0.00 85 1018.0
20180218071209 10 50 3.2 9.7 0.00 0.03 0.00 85 1018.0
20180218070707 10 22 3.2 14.5 0.00 0.03 0.00 85 1018.0
20180218070209 10 34 4.8 14.5 0.00 0.03 0.00 84 1018.0
20180218065708 10 18 4.8 14.5 0.00 0.03 0.00 84 1017.8
20180218065209 10 19 6.4 14.5 0.00 0.03 0.00 84 1017.8
20180218064707 10 25 8.0 14.5 0.00 0.03 0.00 85 1017.8
20180218064209 10 25 8.0 14.5 0.00 0.03 0.00 85 1017.8
20180218063707 10 19 8.0 14.5 0.00 0.03 0.00 85 1017.8
20180218063208 10 14 8.0 16.1 0.00 0.03 0.00 85 1017.8
20180218062707 10 350 8.0 16.1 0.00 0.03 0.00 85 1017.9
20180218062209 10 5 9.7 16.1 0.00 0.03 0.00 85 1017.9
20180218061707 10 15 8.0 14.5 0.00 0.03 0.00 86 1017.9
20180218061209 10 40 8.0 14.5 0.00 0.03 0.00 87 1017.9
20180218060707 10 16 6.4 9.7 0.00 0.03 0.00 87 1017.9
20180218060211 10 35 3.2 8.0 0.00 0.03 0.00 87 1017.9
20180218055709 10 27 3.2 8.0 0.00 0.03 0.00 86 1017.9
20180218055210 10 105 3.2 9.7 0.00 0.03 0.00 86 1017.9
20180218054710 10 17 4.8 12.9 0.00 0.03 0.00 86 1017.9
20180218054210 10 26 4.8 12.9 0.00 0.03 0.00 87 1018.0
20180218053708 10 28 6.4 12.9 0.00 0.03 0.00 87 1018.0
20180218053211 10 16 4.8 9.7 0.00 0.03 0.00 87 1018.0
20180218052711 10 11 4.8 9.7 0.00 0.03 0.00 88 1018.1
20180218052211 10 10 3.2 9.7 0.00 0.03 0.00 88 1018.1
20180218051710 10 15 3.2 14.5 0.00 0.03 0.00 88 1018.1
20180218051211 10 28 4.8 20.9 0.00 0.03 0.00 88 1018.2
20180218050710 10 25 6.4 20.9 0.00 0.03 0.00 88 1018.2
20180218050211 10 11 9.7 20.9 0.00 0.03 0.00 88 1018.2
20180218045709 10 11 11.3 20.9 0.00 0.03 0.00 89 1018.3
20180218045210 10 52 11.3 17.7 0.00 0.03 0.00 89 1018.3
20180218044710 10 5 9.7 17.7 0.00 0.03 0.00 89 1018.3
20180218044210 10 355 8.0 17.7 0.00 0.03 0.00 90 1018.2
20180218043709 10 343 8.0 17.7 0.00 0.03 0.00 90 1018.2
20180218043210 10 328 9.7 14.5 0.00 0.03 0.00 90 1018.2
20180218042709 10 12 9.7 14.5 0.00 0.03 0.00 90 1018.2
20180218042210 10 21 6.4 9.7 0.00 0.03 0.00 90 1018.2
20180218041709 10 0 4.8 11.3 0.00 0.03 0.00 90 1018.2
20180218041211 10 13 4.8 11.3 0.00 0.03 0.00 90 1018.2
20180218040711 10 20 4.8 11.3 0.00 0.03 0.00 89 1018.2
20180218040211 10 24 6.4 9.7 0.00 0.03 0.00 90 1018.2
20180218035709 10 26 4.8 9.7 0.00 0.03 0.00 89 1018.3
20180218035210 10 5 4.8 11.3 0.00 0.03 0.00 88 1018.3
20180218034709 10 32 4.8 11.3 0.00 0.03 0.00 88 1018.3
20180218034209 10 26 4.8 11.3 0.00 0.03 0.00 88 1018.5
20180218033707 10 22 4.8 12.9 0.00 0.03 0.00 88 1018.5
20180218033208 10 23 6.4 14.5 0.00 0.03 0.00 88 1018.5
20180218032707 10 351 8.0 14.5 0.00 0.03 0.00 88 1018.6
20180218032210 10 0 8.0 14.5 0.00 0.03 0.00 88 1018.6
20180218031706 10 0 8.0 14.5 0.00 0.03 0.00 89 1018.6
20180218031209 10 0 8.0 11.3 0.00 0.03 0.00 89 1018.6
20180218030707 10 11 6.4 11.3 0.00 0.03 0.00 89 1018.6
20180218030209 10 0 6.4 11.3 0.00 0.03 0.00 88 1018.6
20180218025705 11 16 6.4 11.3 0.00 0.03 0.00 88 1018.6
20180218025208 11 26 6.4 11.3 0.00 0.03 0.00 88 1018.6
20180218024708 11 47 4.8 11.3 0.00 0.03 0.00 88 1018.6
20180218024210 11 33 4.8 11.3 0.00 0.03 0.00 88 1018.7
20180218023707 11 30 4.8 14.5 0.00 0.03 0.00 88 1018.7
20180218023209 11 12 6.4 14.5 0.00 0.03 0.00 88 1018.7
20180218022707 11 351 6.4 14.5 0.00 0.03 0.00 89 1018.9
20180218022210 11 14 4.8 11.3 0.00 0.03 0.00 90 1018.9
20180218021707 10 348 4.8 9.7 0.00 0.03 0.00 90 1018.9
20180218021209 10 14 4.8 9.7 0.00 0.03 0.00 91 1019.0
20180218020708 10 355 4.8 12.9 0.00 0.03 0.00 91 1019.0
20180218020210 10 12 6.4 14.5 0.00 0.03 0.00 92 1019.0
20180218015707 10 15 8.0 14.5 0.00 0.03 0.00 92 1018.9
20180218015209 10 36 6.4 14.5 0.00 0.03 0.00 92 1018.9
20180218014708 10 32 6.4 9.7 0.00 0.03 0.00 92 1018.9
20180218014210 10 35 6.4 9.7 0.00 0.03 0.00 91 1019.2
20180218013707 10 34 4.8 12.9 0.00 0.03 0.00 91 1019.2
20180218013209 10 47 6.4 12.9 0.00 0.05 0.00 92 1019.2
20180218012707 10 25 6.4 12.9 0.00 0.05 0.00 92 1019.2
20180218012209 10 5 4.8 6.4 0.00 0.05 0.00 91 1019.2
20180218011707 10 5 3.2 6.4 0.00 0.05 0.00 90 1019.2
20180218011209 10 53 1.6 3.2 0.00 0.05 0.00 91 1019.4
20180218010706 10 336 0.0 4.8 0.00 0.05 0.00 91 1019.4
20180218010208 10 336 0.0 4.8 0.00 0.05 0.00 91 1019.4
20180218005708 11 336 1.6 8.0 0.00 0.05 0.00 91 1019.5
20180218005208 11 336 3.2 8.0 0.00 0.05 0.00 91 1019.5
20180218004708 11 340 4.8 8.0 0.00 0.05 0.00 91 1019.5
20180218004210 11 355 3.2 6.4 0.00 0.05 0.00 91 1019.6
20180218003707 11 341 1.6 6.4 0.00 0.05 0.00 91 1019.6
20180218003209 11 336 1.6 6.4 0.00 0.05 0.00 90 1019.6
20180218002707 11 336 1.6 6.4 0.00 0.05 0.00 90 1019.6
20180218002213 11 343 3.2 9.7 0.00 0.05 0.00 90 1019.6
20180218001708 11 0 4.8 11.3 0.00 0.05 0.00 91 1019.6
20180218001209 11 5 6.4 11.3 0.00 0.05 0.00 91 1019.7
20180218000707 11 331 6.4 14.5 0.00 0.05 0.00 91 1019.7
20180218000210 11 348 6.4 14.5 0.00 0.05 0.05 91 1019.7
20180217235707 11 328 6.4 14.5 0.00 0.05 0.05 91 1019.7
20180217235209 11 333 4.8 11.3 0.00 0.05 0.05 91 1019.7
20180217234708 11 338 3.2 8.0 0.00 0.05 0.05 91 1019.7
20180217234209 11 308 3.2 6.4 0.00 0.05 0.05 91 1019.8
20180217233707 11 351 3.2 8.0 0.00 0.05 0.05 91 1019.8
20180217233209 11 311 3.2 8.0 0.00 0.05 0.05 91 1019.8
20180217232707 11 355 4.8 8.0 0.00 0.05 0.05 91 1020.0
20180217232210 11 326 4.8 9.7 0.00 0.05 0.05 91 1020.0
20180217231737 11 325 4.8 12.9 0.00 0.05 0.05 91 1020.0
20180217231209 11 302 6.4 12.9 0.00 0.05 0.05 91 1020.1
20180217230707 11 333 8.0 14.5 0.00 0.05 0.05 91 1020.1
20180217230209 11 355 8.0 14.5 0.00 0.05 0.05 91 1020.1
20180217225707 11 315 6.4 14.5 0.00 0.05 0.05 90 1020.1
20180217225211 11 334 4.8 9.7 0.00 0.05 0.05 90 1020.1
20180217224708 11 329 4.8 8.0 0.00 0.05 0.05 90 1020.1
20180217224209 11 333 3.2 9.7 0.00 0.05 0.05 89 1020.0
20180217223708 11 342 3.2 9.7 0.00 0.05 0.05 89 1020.0
20180217223209 11 340 3.2 9.7 0.00 0.05 0.05 89 1020.0
20180217222708 11 329 4.8 6.4 0.00 0.05 0.05 89 1020.1
20180217222208 11 340 3.2 11.3 0.00 0.05 0.05 88 1020.1
20180217221708 11 321 3.2 11.3 0.00 0.05 0.05 88 1020.1
20180217221209 11 326 4.8 9.7 0.00 0.05 0.05 88 1020.3
20180217220707 11 330 4.8 9.7 0.00 0.05 0.05 88 1020.3
20180217220209 12 332 4.8 11.3 0.00 0.05 0.05 88 1020.3
20180217215707 12 344 4.8 11.3 0.00 0.05 0.05 88 1020.3
20180217215207 12 342 6.4 11.3 0.00 0.05 0.05 89 1020.3
20180217214707 12 323 6.4 11.3 0.00 0.05 0.05 88 1020.3
20180217214210 12 342 6.4 14.5 0.00 0.05 0.05 89 1020.1
20180217213707 12 341 6.4 14.5 0.00 0.05 0.05 89 1020.1
20180217213209 12 340 6.4 14.5 0.00 0.05 0.05 89 1020.1
20180217212707 12 327 8.0 12.9 0.00 0.05 0.05 89 1020.3
20180217212211 12 324 6.4 12.9 0.00 0.05 0.05 89 1020.3
20180217211712 12 318 6.4 12.9 0.00 0.05 0.05 89 1020.3
20180217211226 12 329 6.4 11.3 0.00 0.05 0.05 89 1020.3
20180217210713 11 321 4.8 12.9 0.00 0.05 0.05 89 1020.3
20180217210210 12 325 6.4 12.9 0.00 0.05 0.05 89 1020.3
20180217205707 11 336 6.4 12.9 0.00 0.05 0.05 89 1020.1
20180217205209 11 333 6.4 12.9 0.00 0.05 0.05 89 1020.1
20180217204716 11 331 4.8 9.7 0.00 0.05 0.05 89 1020.1
20180217204209 11 351 3.2 8.0 0.00 0.05 0.05 87 1020.1
20180217203712 11 303 3.2 8.0 0.00 0.05 0.05 86 1020.1
20180217203210 11 296 3.2 8.0 0.00 0.05 0.05 87 1020.1
20180217202712 11 298 3.2 6.4 0.00 0.05 0.05 86 1020.0
20180217202210 11 289 3.2 6.4 0.00 0.05 0.05 86 1020.0
20180217201707 11 301 3.2 6.4 0.00 0.05 0.05 85 1020.0
20180217201209 12 300 3.2 6.4 0.00 0.05 0.05 85 1019.9
20180217200707 12 284 3.2 8.0 0.00 0.05 0.05 84 1019.9
20180217200209 12 291 4.8 8.0 0.00 0.05 0.05 84 1019.9
20180217195708 12 281 4.8 8.0 0.00 0.05 0.05 84 1019.9
20180217195210 12 286 4.8 8.0 0.00 0.05 0.05 83 1019.9
20180217194707 12 283 4.8 6.4 0.00 0.05 0.05 83 1019.9
20180217194210 12 285 4.8 6.4 0.00 0.05 0.05 82 1020.0
20180217193707 12 287 3.2 6.4 0.00 0.05 0.05 82 1020.0
20180217193211 12 295 3.2 6.4 0.00 0.05 0.05 81 1020.0
20180217192707 12 329 3.2 8.0 0.00 0.05 0.05 81 1020.0
20180217192209 12 330 4.8 9.7 0.00 0.05 0.05 80 1020.0
20180217191707 13 329 4.8 9.7 0.00 0.05 0.05 80 1020.0
20180217191209 13 344 4.8 9.7 0.00 0.05 0.05 80 1020.0
20180217190707 13 339 4.8 11.3 0.00 0.05 0.05 79 1020.0
20180217190210 13 344 4.8 11.3 0.00 0.05 0.05 79 1020.0
20180217185708 13 343 4.8 11.3 0.00 0.05 0.05 79 1020.0
20180217185208 13 355 4.8 11.3 0.00 0.05 0.05 79 1020.0
20180217184708 13 324 6.4 11.3 0.00 0.05 0.05 78 1020.0
20180217184208 13 341 4.8 11.3 0.00 0.05 0.05 78 1019.9
20180217183708 13 325 4.8 9.7 0.00 0.05 0.05 78 1019.9
20180217183209 13 334 4.8 9.7 0.00 0.05 0.05 77 1019.9
20180217182708 13 342 4.8 9.7 0.00 0.05 0.05 77 1019.9
20180217182208 13 344 4.8 14.5 0.00 0.05 0.05 76 1019.9